Satellite-Ground Cal/Val Region Overpasses Predictions

Prediction of Satellite NPP Overpassing Cal/Val Region: PacNW

Region Location: (Latitude: 10.00, Longitude: 139.50) to (Latitude: 22.70, Longitude: 165.60).

Table of predicted overpasses for the next 14.0 days since TLE Epoch: 2/26/2022
Interval Starting Time Starting Location Ending Time Ending Location
1 02/26/2022 02:33:21 ( 10.62, 161.35) 02/26/2022 02:36:46 ( 22.66, 158.48)
2 02/26/2022 15:05:03 ( 22.69, 158.72) 02/26/2022 15:08:39 ( 10.01, 155.71)
3 02/27/2022 02:14:57 ( 12.87, 165.59) 02/27/2022 02:17:44 ( 22.67, 163.24)
4 02/27/2022 03:55:39 ( 10.05, 140.86) 02/27/2022 03:57:19 ( 15.93, 139.50)
5 02/27/2022 14:46:02 ( 22.68, 163.47) 02/27/2022 14:49:37 ( 10.06, 160.47)
6 02/28/2022 03:36:37 ( 10.01, 145.63) 02/28/2022 03:40:13 ( 22.69, 142.61)
7 02/28/2022 14:30:08 ( 11.63, 165.59) 02/28/2022 14:30:35 ( 10.05, 165.23)
8 02/28/2022 16:08:30 ( 22.66, 142.85) 02/28/2022 16:12:05 ( 10.04, 139.85)
9 03/01/2022 03:17:35 ( 10.02, 150.38) 03/01/2022 03:21:10 ( 22.64, 147.38)
10 03/01/2022 15:49:29 ( 22.65, 147.60) 03/01/2022 15:53:04 ( 10.03, 144.60)
11 03/02/2022 02:58:34 ( 10.04, 155.14) 03/02/2022 03:02:09 ( 22.66, 152.13)
12 03/02/2022 15:30:26 ( 22.69, 152.37) 03/02/2022 15:34:02 ( 10.01, 149.36)
13 03/03/2022 02:39:32 ( 10.05, 159.89) 03/03/2022 02:43:07 ( 22.67, 156.89)
14 03/03/2022 15:11:25 ( 22.68, 157.13) 03/03/2022 15:15:01 ( 10.00, 154.11)
15 03/04/2022 02:20:30 ( 10.01, 164.66) 03/04/2022 02:24:06 ( 22.69, 161.64)
16 03/04/2022 14:52:23 ( 22.67, 161.88) 03/04/2022 14:55:58 ( 10.04, 158.88)
17 03/05/2022 03:42:58 ( 10.03, 144.03) 03/05/2022 03:46:33 ( 22.65, 141.03)
18 03/05/2022 14:34:34 ( 18.43, 165.59) 03/05/2022 14:36:57 ( 10.03, 163.63)
19 03/05/2022 16:14:52 ( 22.64, 141.25) 03/05/2022 16:16:55 ( 15.43, 139.51)
20 03/06/2022 03:23:57 ( 10.04, 148.79) 03/06/2022 03:27:32 ( 22.66, 145.78)
21 03/06/2022 15:55:50 ( 22.69, 146.02) 03/06/2022 15:59:26 ( 10.01, 143.01)
22 03/07/2022 03:04:55 ( 10.06, 153.54) 03/07/2022 03:08:30 ( 22.68, 150.54)
23 03/07/2022 15:36:48 ( 22.67, 150.77) 03/07/2022 15:40:23 ( 10.05, 147.77)
24 03/08/2022 02:45:53 ( 10.01, 158.30) 03/08/2022 02:49:29 ( 22.70, 155.29)
25 03/08/2022 15:17:47 ( 22.66, 155.53) 03/08/2022 15:21:22 ( 10.04, 152.53)
26 03/09/2022 02:26:51 ( 10.03, 163.06) 03/09/2022 02:30:26 ( 22.65, 160.06)
27 03/09/2022 14:58:44 ( 22.70, 160.29) 03/09/2022 15:02:20 ( 10.02, 157.28)
28 03/10/2022 02:10:31 ( 19.50, 165.59) 03/10/2022 02:11:25 ( 22.67, 164.81)
29 03/10/2022 03:49:20 ( 10.05, 142.43) 03/10/2022 03:52:50 ( 22.38, 139.51)
30 03/10/2022 14:39:43 ( 22.68, 165.05) 03/10/2022 14:43:19 ( 10.00, 162.03)
31 03/10/2022 16:21:13 ( 22.68, 139.67) 03/10/2022 16:21:24 ( 22.03, 139.51)
32 03/11/2022 03:30:17 ( 10.01, 147.20) 03/11/2022 03:33:53 ( 22.70, 144.18)
